�ϑ��N����,2015�N�@10���@15��,,,
�ϑ���,����^���Y,,,
�ϑ��n�_,1,,,
���x�v�ԍ�,A011,,,
,,,,
����,�C��,����,����,���l
15:00:00,22,0,0,
15:01:00,21.8,0,0,
15:02:00,21.8,0,0,
15:03:00,21.6,0,0,
15:04:00,21.6,0,0,
15:05:00,21.6,0,0,
15:06:00,21.6,0,0,
15:07:00,21.5,0,0,
15:08:00,21.5,0,0,
15:09:00,21.6,1,1,���敗��������
15:10:00,21.5,0,0,
15:11:00,21.6,0,0,
15:12:00,21.6,0,0,
15:13:00,21.5,0,0,
15:14:00,21.2,0,0,�����_�ɉB�ꂽ
15:15:00,21.3,0,0,
15:16:00,21.2,0,0,
15:17:00,21.3,0,0,
15:18:00,21.5,4,1,�����Ƃ�o����
15:19:00,21.6,4,1,
15:20:00,21.5,0,0,
15:21:00,21.6,0,0,
15:22:00,21.6,4,1,
15:23:00,21.5,3,1,
15:24:00,21.4,4,1,���z���B�ꂽ
15:25:00,21.3,2,1,
15:26:00,21.3,0,0,
15:27:00,21.2,3,1,
15:28:00,21.2,3,2,
15:29:00,21.2,3,2,
15:30:00,21.1,3,2,
15:31:00,21.1,4,2,
15:32:00,21,3,1,
15:33:00,21,0,0,
15:34:00,21.2,0,0,
15:35:00,21.2,0,0,
15:36:00,21.1,0,0,
15:37:00,21.1,3,1,
15:38:00,21.2,3,1,
15:39:00,21.2,3,1,
15:40:00,21.1,3,1,
15:41:00,21,3,3,
15:42:00,21,3,1,
15:43:00,21,4,1,
15:44:00,21.1,4,1,
15:45:00,21,4,1,
15:46:00,21.1,4,1,
15:47:00,21,4,2,
15:48:00,20.9,4,2,
15:49:00,21,4,3,
15:50:00,21,4,1,
15:51:00,20.9,4,1,
15:52:00,20.9,4,1,
15:53:00,20.9,4,2,
15:54:00,21,4,2,
15:55:00,20.9,4,1,
15:56:00,20.8,4,2,
15:57:00,20.7,4,3,
15:58:00,20.7,4,1,
15:59:00,20.8,0,0,
16:00:00,20.8,3,1,
16:01:00,20.8,0,0,
16:02:00,20.8,3,1,
16:03:00,20.8,3,1,
16:04:00,20.6,3,1,
16:05:00,20.5,3,1,
16:06:00,20.6,0,0,
16:07:00,20.5,0,0,
16:08:00,20.5,0,0,
16:09:00,20.4,3,2,
16:10:00,20.4,4,1,
16:11:00,20.3,3,1,
16:12:00,20.3,0,0,
16:13:00,20.3,0,0,
16:14:00,20.3,0,0,
16:15:00,20.2,4,1,
16:16:00,20.1,0,0,���A�ɂȂ�
16:17:00,20.1,4,1,
16:18:00,20,0,0,
16:19:00,20,0,0,
16:20:00,20,0,0,
16:21:00,20.1,4,1,
16:22:00,20.1,0,0,
16:23:00,20.2,3,1,
16:24:00,20.1,3,2,
16:25:00,20.1,3,2,
16:26:00,20,3,2,
16:27:00,20,3,2,
16:28:00,20,3,1,
16:29:00,20,0,0,
16:30:00,20,0,0,
16:31:00,20,4,1,
16:32:00,20,4,2,
16:33:00,20,4,1,
16:34:00,20.1,0,0,
16:35:00,20,0,0,
16:36:00,20,0,0,
16:37:00,20,0,0,
16:38:00,20,0,0,
16:39:00,20.1,0,0,
16:40:00,20,0,0,
16:41:00,19.9,0,0,
16:42:00,19.8,0,0,
16:43:00,19.8,0,0,
16:44:00,19.6,0,0,
16:45:00,19.5,0,0,
16:46:00,19.6,0,0,
16:47:00,19.4,0,0,
16:48:00,19.3,0,0,
16:49:00,19.2,0,0,
16:50:00,19,0,0,
16:51:00,19,0,0,
16:52:00,19,0,0,
16:53:00,19,0,0,
16:54:00,19,0,0,
16:55:00,19.1,0,0,
16:56:00,19.1,3,1,
16:57:00,19.1,0,0,
16:58:00,19,0,0,
16:59:00,19,0,0,
17:00:00,18.9,3,1,
